Home   Weather   Rethymno   Past weeks
Flag for Greece

Past Weather in Rethymno, Greece — Yesterday and Last 2 Weeks

Now
73 °F

Passing clouds.


Feels Like: 76 °F
Forecast: 69 / 59 °F
Wind: 18 mph from Southeast

Location: Souda Airport

Current Time: Nov 12, 2019 at 6:16:07 pm

Latest Report: Nov 12, 2019 at 5:20 pm


Visibility: N/A

Pressure: 29.80 "Hg

Humidity: 69%

Dew Point: 63 °F

Location of RethymnoLocation

Past Weather in Rethymno — Graph

°F

Rethymno Temperature Yesterday

Maximum temperature yesterday: 75 °F (at 12:50 pm)
Minimum temperature yesterday: 61 °F (at 2:50 am)
Average temperature yesterday: 67 °F

High & Low Weather Summary for the Past Weeks

 TemperatureHumidityPressure
High82 °F (Nov 7, 12:50 pm)100% (Oct 29, 8:50 pm)30.07 "Hg (Oct 29, 8:50 pm)
Low57 °F (Oct 29, 4:50 am)36% (Nov 12, 11:50 am)29.80 "Hg (Nov 12, 3:20 pm)
Average67 °F80%29.97 "Hg
* Reported Oct 28 5:20 pm — Nov 12 5:20 pm, Rethymno. Weather by CustomWeather, © 2019

Note: Actual official high and low records may vary slightly from our data, if they occured in-between our weather recording intervals... More about our weather records

Advertising

Rethymno Weather History for the Previous 24 Hours

Scroll right to see more
 ConditionsComfort  
Time TempWeatherWind HumidityBarometerVisibility
5:20 pm
Tue, Nov 12
73 °FPassing clouds.18 mph69%29.80 "HgN/A
4:50 pm73 °FPartly sunny.15 mph69%29.80 "HgN/A
4:20 pm73 °FPartly sunny.18 mph53%29.80 "HgN/A
3:50 pm73 °FPartly sunny.14 mph53%29.80 "HgN/A
3:20 pm73 °FPartly sunny.16 mph44%29.80 "HgN/A
2:50 pm73 °FPartly sunny.18 mph44%29.83 "HgN/A
2:20 pm77 °FLight rain. Partly sunny.20 mph36%29.83 "HgN/A
1:50 pm77 °FPartly sunny.23 mph36%29.83 "HgN/A
1:20 pm77 °FPartly sunny.17 mph39%29.83 "HgN/A
12:50 pm77 °FPartly sunny.17 mph39%29.83 "HgN/A
12:20 pm77 °FPartly sunny.21 mph36%29.86 "HgN/A
11:50 am77 °FPartly sunny.21 mph36%29.86 "HgN/A
11:20 am75 °FPartly sunny.23 mph44%29.86 "HgN/A
10:50 am75 °FPartly sunny.23 mph44%29.86 "HgN/A
10:20 am75 °FPartly sunny.23 mph41%29.86 "HgN/A
9:50 am75 °FPartly sunny.21 mph41%29.86 "HgN/A
9:20 am75 °FPartly sunny.21 mph41%29.86 "HgN/A
8:50 am75 °FScattered clouds.23 mph41%29.86 "HgN/A
8:20 am72 °FPassing clouds.23 mph50%29.86 "HgN/A
7:50 am72 °FPassing clouds.23 mph50%29.86 "HgN/A
7:20 am73 °FPassing clouds.23 mph41%29.86 "HgN/A
6:50 am73 °FPassing clouds.21 mph41%29.86 "HgN/A
6:20 am73 °FPassing clouds.18 mph44%29.86 "HgN/A
5:50 am72 °FPassing clouds.17 mph53%29.86 "HgN/A
5:20 am72 °FPassing clouds.16 mph53%29.86 "HgN/A
4:50 am72 °FPassing clouds.16 mph53%29.86 "HgN/A
4:20 am72 °FPassing clouds.18 mph53%29.89 "HgN/A
3:50 am72 °FPassing clouds.20 mph50%29.89 "HgN/A
3:20 am72 °FPassing clouds.18 mph57%29.89 "HgN/A
2:50 am72 °FPassing clouds.12 mph57%29.89 "HgN/A
2:20 am70 °FPassing clouds.17 mph60%29.89 "HgN/A
1:50 am70 °FPassing clouds.16 mph60%29.89 "HgN/A
1:20 am70 °FPassing clouds.15 mph60%29.92 "HgN/A
12:50 am70 °FPassing clouds.15 mph60%29.92 "HgN/A
12:20 am70 °FPassing clouds.15 mph69%29.92 "HgN/A
11:20 pm
Mon, Nov 11
70 °FPassing clouds.15 mph78%29.92 "HgN/A
10:50 pm68 °FPassing clouds.13 mph88%29.92 "HgN/A
10:20 pm66 °FPassing clouds.13 mph94%29.95 "HgN/A
9:50 pm66 °FPassing clouds.10 mph94%29.95 "HgN/A
9:20 pm68 °FPassing clouds.14 mph88%29.95 "HgN/A
8:50 pm68 °FPassing clouds.14 mph88%29.95 "HgN/A
8:20 pm68 °FPassing clouds.9 mph88%29.95 "HgN/A
7:50 pm68 °FPassing clouds.9 mph88%29.95 "HgN/A
7:20 pm68 °FPassing clouds.5 mph94%29.95 "HgN/A
6:50 pm68 °FPassing clouds.5 mph94%29.95 "HgN/A
6:20 pm68 °FPassing clouds.7 mph94%29.95 "HgN/A
Weather by CustomWeather, © 2019

See weather overview